Weather History for Scottsbluff, NE

Change the Weather History Date:

Saturday, January 19, 2013

  Actual Average Record
Temperature  
Mean Temperature 39 °F 28 °F  
Max Temperature 55 °F 41 °F 66 °F (1920)
Min Temperature 22 °F 14 °F -32 °F (1963)
Degree Days  
Heating Degree Days 26 37  
Month to date heating degree days 741 726  
Since 1 July heating degree days 3165 3498  
Cooling Degree Days 0 0  
Month to date cooling degree days 0 0  
Year to date cooling degree days 0 0  
Moisture  
Dew Point 14 °F    
Average Humidity 45    
Maximum Humidity 75    
Minimum Humidity 15    
Precipitation  
Precipitation 0.00 in 0.01 in 0.48 in (1990)
Month to date precipitation 0.10 0.25  
Year to date precipitation 0.10 0.25  
Snow  
Snow 0.00 in 0.10 in 6.20 in (1990)
Month to date snowfall 1.7 3.3  
Since 1 July snowfall 15.5 19.3  
Snow Depth 0.00 in    
Sea Level Pressure  
Sea Level Pressure 30.19 in    
Wind  
Wind Speed 9 mph (NW)    
Max Wind Speed 18 mph    
Max Gust Speed 24 mph    
Visibility 10 miles    
Events      
T = Trace of Precipitation, MM = Missing Value Source: NWS Daily Summary

Daily Weather History Graph

Daily Weather History Graph

Search for Another Location

Airport:

Trip Planner

Search our weather history database for the weather conditions in past years. The results will help you decide how hot, cold, wet, or windy it might be!

Date:

Astronomy

Jan. 19, 2013 Rise Set
Actual Time 7:17 AM MST 4:53 PM MST
Civil Twilight 6:46 AM MST 5:24 PM MST
Nautical Twilight 6:12 AM MST 5:58 PM MST
Astronomical Twilight 5:39 AM MST 6:31 PM MST
Moon 11:22 AM MST (1/19) 12:52 AM MST (1/19)
Length of Visible Light 10h 37m
Length of Day
9h 36m
First Quarter, 58% of the Moon is Illuminated
Jan 19
First Quarter
Jan 26
Full
Feb 3
Last Quarter
Feb 10
New
Feb 17
First Quarter

Hourly Weather History & Observations

Time (MST) Temp. Windchill Dew Point Humidity Pressure Visibility Wind Dir Wind Speed Gust Speed Precip Events Conditions
12:53 AM 37.0 °F 31.6 °F 14.0 °F 39% 30.02 in 10.0 mi WNW 6.9 mph - N/A   Clear
1:53 AM 27.0 °F 19.5 °F 12.9 °F 56% 30.06 in 10.0 mi NNW 6.9 mph - N/A   Clear
2:53 AM 36.0 °F 28.0 °F 14.0 °F 41% 30.05 in 10.0 mi West 11.5 mph - N/A   Clear
3:53 AM 25.0 °F 16.3 °F 12.9 °F 60% 30.12 in 10.0 mi NW 8.1 mph - N/A   Clear
4:53 AM 23.0 °F 14.7 °F 12.2 °F 63% 30.11 in 10.0 mi NW 6.9 mph - N/A   Clear
5:53 AM 24.1 °F 14.4 °F 14.0 °F 65% 30.17 in 10.0 mi West 9.2 mph - N/A   Clear
6:53 AM 27.0 °F 17.3 °F 12.9 °F 56% 30.19 in 10.0 mi WNW 10.4 mph - N/A   Clear
7:53 AM 26.1 °F 17.6 °F 14.0 °F 60% 30.22 in 10.0 mi NW 8.1 mph - N/A   Clear
8:53 AM 34.0 °F 28.0 °F 15.1 °F 46% 30.24 in 10.0 mi West 6.9 mph - N/A   Clear
9:53 AM 43.0 °F 36.0 °F 14.0 °F 31% 30.23 in 10.0 mi WNW 13.8 mph - N/A   Clear
10:53 AM 48.0 °F - 14.0 °F 26% 30.20 in 10.0 mi NW 13.8 mph - N/A   Clear
11:53 AM 51.1 °F - 12.0 °F 21% 30.18 in 10.0 mi WNW 15.0 mph - N/A   Clear
12:53 PM 55.0 °F - 10.0 °F 17% 30.15 in 10.0 mi WNW 13.8 mph - N/A   Clear
1:53 PM 55.0 °F - 8.1 °F 15% 30.17 in 10.0 mi NW 13.8 mph - N/A   Clear
2:53 PM 55.0 °F - 9.0 °F 16% 30.14 in 10.0 mi NW 12.7 mph - N/A   Clear
3:53 PM 53.1 °F - 9.0 °F 17% 30.19 in 10.0 mi NNW 6.9 mph - N/A   Clear
4:53 PM 43.0 °F 39.5 °F 10.9 °F 27% 30.22 in 10.0 mi NNE 5.8 mph - N/A   Clear
5:53 PM 34.0 °F 26.0 °F 14.0 °F 44% 30.26 in 10.0 mi NNE 10.4 mph - N/A   Clear
6:53 PM 35.1 °F 30.1 °F 17.1 °F 48% 30.29 in 10.0 mi Variable 5.8 mph - N/A   Clear
7:53 PM 28.9 °F 21.9 °F 17.1 °F 61% 30.31 in 10.0 mi East 6.9 mph - N/A   Clear
8:53 PM 30.0 °F 23.2 °F 19.9 °F 66% 30.29 in 10.0 mi East 6.9 mph - N/A   Clear
9:53 PM 30.0 °F 25.2 °F 21.0 °F 69% 30.25 in 10.0 mi ESE 4.6 mph - N/A   Clear
10:53 PM 26.1 °F - 19.0 °F 75% 30.22 in 10.0 mi Calm Calm - N/A   Clear
11:53 PM 27.0 °F 19.5 °F 21.0 °F 78% 30.18 in 10.0 mi SE 6.9 mph - N/A   Clear